Home   Weather   Passo Fundo   Past weeks
Flag for Brazil

Past Weather in Passo Fundo, Rio Grande do Sul, Brazil — Yesterday and Last 2 Weeks

Now
70 °F

Overcast.


Feels Like: 70 °F
Forecast: N/A
Wind: 9 mph from Southeast

Location: Porto Alegre Aero-Porto

Current Time: Oct 16, 2019 at 4:38:33 pm

Latest Report: Oct 16, 2019 at 4:00 pm


Visibility: N/A

Pressure: 30.04 "Hg (27.76 "Hg at 680m altitude)

Humidity: 83%

Dew Point: 64 °F

Location of Passo FundoLocation

Past Weather in Passo Fundo — Graph

°F

Passo Fundo Temperature Yesterday

Maximum temperature yesterday: 66 °F (at 12:00 pm)
Minimum temperature yesterday: 57 °F (at 12:00 am)
Average temperature yesterday: 62 °F

High & Low Weather Summary for the Past Weeks

 TemperatureHumidityPressure
High102 °F (Oct 12, 2:00 pm)100% (Oct 2, 5:42 pm)30.30 "Hg (Oct 2, 5:42 pm)
Low55 °F (Oct 14, 8:00 pm)20% (Oct 11, 3:00 pm)29.59 "Hg (Oct 1, 3:00 pm)
Average70 °F82%29.98 "Hg
* Reported Oct 1 3:00 pm — Oct 16 3:00 pm, Passo Fundo. Weather by CustomWeather, © 2019

Note: Actual official high and low records may vary slightly from our data, if they occured in-between our weather recording intervals... More about our weather records

Advertising

Passo Fundo Weather History for the Previous 24 Hours

Scroll right to see more
 ConditionsComfort  
Time TempWeatherWind HumidityBarometerVisibility
3:00 pm
Wed, Oct 16
70 °FBroken clouds.8 mph83%30.07 "HgN/A
2:00 pm68 °FMore clouds than sun.6 mph88%30.07 "Hg6 mi
1:00 pm66 °FLight rain. More clouds than sun.9 mph94%30.07 "Hg4 mi
12:00 pm66 °FLight rain. More clouds than sun.9 mph94%30.12 "Hg4 mi
11:00 am66 °FLight rain. Overcast.5 mph94%30.15 "HgN/A
10:00 am66 °FLight rain. Overcast.8 mph94%30.12 "Hg4 mi
9:00 am66 °FSunny.7 mph88%30.12 "Hg10 mi
8:00 am64 °FPartly sunny.8 mph94%30.12 "HgN/A
7:00 am64 °FBroken clouds.15 mph94%30.07 "HgN/A
6:00 am64 °FOvercast.16 mph88%30.09 "HgN/A
5:00 am64 °FThundershowers. Overcast.10 mph88%30.09 "HgN/A
4:00 am64 °FMostly cloudy.10 mph88%30.09 "HgN/A
3:00 am64 °FPartly cloudy.12 mph88%30.09 "HgN/A
2:00 am64 °FMostly cloudy.13 mph88%30.12 "HgN/A
1:00 am64 °FOvercast.13 mph88%30.15 "HgN/A
12:00 am64 °FPartly cloudy.16 mph88%30.18 "HgN/A
11:00 pm
Tue, Oct 15
64 °FMostly cloudy.15 mph88%30.18 "HgN/A
10:00 pm64 °FMostly cloudy.15 mph88%30.21 "HgN/A
9:00 pm64 °FMostly cloudy.17 mph88%30.21 "HgN/A
8:00 pm64 °FMostly cloudy.16 mph88%30.18 "HgN/A
7:00 pm64 °FMostly cloudy.16 mph88%30.15 "HgN/A
6:00 pm64 °FMostly cloudy.16 mph88%30.15 "HgN/A
5:00 pm64 °FMostly cloudy.20 mph88%30.15 "HgN/A
4:00 pm64 °FMostly cloudy.17 mph88%30.18 "Hg4 mi
Weather by CustomWeather, © 2019

See weather overview